Year,Month,Day,Hour,Minute,Value (Times are PST for temperature in C)
2007,06,19,00,00,10.10
2007,06,19,00,01,10.10
2007,06,19,00,02,10.10
2007,06,19,00,03,10.10
2007,06,19,00,04,10.10
2007,06,19,00,05,10.10
2007,06,19,00,06,10.10
2007,06,19,00,07,10.10
2007,06,19,00,08,10.10
2007,06,19,00,09,10.10
2007,06,19,00,10,10.10
2007,06,19,00,11,10.10
2007,06,19,00,12,10.00
2007,06,19,00,13,9.90
2007,06,19,00,14,9.90
2007,06,19,00,15,9.90
2007,06,19,00,16,9.90
2007,06,19,00,17,9.90
2007,06,19,00,18,9.90
2007,06,19,00,19,9.90
2007,06,19,00,20,9.90
2007,06,19,00,21,9.90
2007,06,19,00,22,9.90
2007,06,19,00,23,9.90
2007,06,19,00,24,9.90
2007,06,19,00,25,9.90
2007,06,19,00,26,9.80
2007,06,19,00,27,9.80
2007,06,19,00,28,9.80
2007,06,19,00,29,9.80
2007,06,19,00,30,9.80
2007,06,19,00,31,9.80
2007,06,19,00,32,9.80
2007,06,19,00,33,9.70
2007,06,19,00,34,9.70
2007,06,19,00,35,9.70
2007,06,19,00,36,9.70
2007,06,19,00,37,9.70
2007,06,19,00,38,9.70
2007,06,19,00,39,9.70
2007,06,19,00,40,9.70
2007,06,19,00,41,9.70
2007,06,19,00,42,9.70
2007,06,19,00,43,9.70
2007,06,19,00,44,9.60
2007,06,19,00,45,9.60
2007,06,19,00,46,9.60
2007,06,19,00,47,9.60
2007,06,19,00,48,9.60
2007,06,19,00,49,9.60
2007,06,19,00,50,9.60
2007,06,19,00,51,9.60
2007,06,19,00,52,9.60
2007,06,19,00,53,9.60
2007,06,19,00,54,9.60
2007,06,19,00,55,9.60
2007,06,19,00,56,9.50
2007,06,19,00,57,9.50
2007,06,19,00,58,9.50
2007,06,19,00,59,9.50
2007,06,19,01,00,9.50
2007,06,19,01,01,9.50
2007,06,19,01,02,9.50
2007,06,19,01,03,9.50
2007,06,19,01,04,9.50
2007,06,19,01,05,9.50
2007,06,19,01,06,9.50
2007,06,19,01,07,9.50
2007,06,19,01,08,9.50
2007,06,19,01,09,9.50
2007,06,19,01,10,9.50
2007,06,19,01,11,9.50
2007,06,19,01,12,9.50
2007,06,19,01,13,9.40
2007,06,19,01,14,9.40
2007,06,19,01,15,9.40
2007,06,19,01,16,9.40
2007,06,19,01,17,9.40
2007,06,19,01,18,9.40
2007,06,19,01,19,9.40
2007,06,19,01,20,9.40
2007,06,19,01,21,9.30
2007,06,19,01,22,9.30
2007,06,19,01,23,9.30
2007,06,19,01,24,9.30
2007,06,19,01,25,9.30
2007,06,19,01,26,9.30
2007,06,19,01,27,9.30
2007,06,19,01,28,9.20
2007,06,19,01,29,9.20
2007,06,19,01,30,9.20
2007,06,19,01,31,9.20
2007,06,19,01,32,9.20
2007,06,19,01,33,9.20
2007,06,19,01,34,9.10
2007,06,19,01,35,9.10
2007,06,19,01,36,9.10
2007,06,19,01,37,9.10
2007,06,19,01,38,9.00
2007,06,19,01,39,9.00
2007,06,19,01,40,9.00
2007,06,19,01,41,9.00
2007,06,19,01,42,8.90
2007,06,19,01,43,8.90
2007,06,19,01,44,8.90
2007,06,19,01,45,8.90
2007,06,19,01,46,8.90
2007,06,19,01,47,8.90
2007,06,19,01,48,8.80
2007,06,19,01,49,8.80
2007,06,19,01,50,8.80
2007,06,19,01,51,8.80
2007,06,19,01,52,8.80
2007,06,19,01,53,8.80
2007,06,19,01,54,8.80
2007,06,19,01,55,8.80
2007,06,19,01,56,8.80
2007,06,19,01,57,8.80
2007,06,19,01,58,8.80
2007,06,19,01,59,8.80
2007,06,19,02,00,8.70
2007,06,19,02,01,8.70
2007,06,19,02,02,8.70
2007,06,19,02,03,8.70
2007,06,19,02,04,8.70
2007,06,19,02,05,8.70
2007,06,19,02,06,8.70
2007,06,19,02,07,8.70
2007,06,19,02,08,8.70
2007,06,19,02,09,8.70
2007,06,19,02,10,8.70
2007,06,19,02,11,8.70
2007,06,19,02,12,8.70
2007,06,19,02,13,8.70
2007,06,19,02,14,8.70
2007,06,19,02,15,8.60
2007,06,19,02,16,8.60
2007,06,19,02,17,8.60
2007,06,19,02,18,8.60
2007,06,19,02,19,8.60
2007,06,19,02,20,8.60
2007,06,19,02,21,8.60
2007,06,19,02,22,8.60
2007,06,19,02,23,8.60
2007,06,19,02,24,8.60
2007,06,19,02,25,8.60
2007,06,19,02,26,8.60
2007,06,19,02,27,8.60
2007,06,19,02,28,8.60
2007,06,19,02,29,8.60
2007,06,19,02,30,8.50
2007,06,19,02,31,8.50
2007,06,19,02,32,8.50
2007,06,19,02,33,8.50
2007,06,19,02,34,8.40
2007,06,19,02,35,8.40
2007,06,19,02,36,8.40
2007,06,19,02,37,8.40
2007,06,19,02,38,8.30
2007,06,19,02,39,8.30
2007,06,19,02,40,8.30
2007,06,19,02,41,8.30
2007,06,19,02,42,8.30
2007,06,19,02,43,8.30
2007,06,19,02,44,8.30
2007,06,19,02,45,8.20
2007,06,19,02,46,8.20
2007,06,19,02,47,8.20
2007,06,19,02,48,8.20
2007,06,19,02,49,8.20
2007,06,19,02,50,8.20
2007,06,19,02,51,8.20
2007,06,19,02,52,8.20
2007,06,19,02,53,8.20
2007,06,19,02,54,8.20
2007,06,19,02,55,8.20
2007,06,19,02,56,8.20
2007,06,19,02,57,8.20
2007,06,19,02,58,8.20
2007,06,19,02,59,8.20
2007,06,19,03,00,8.20
2007,06,19,03,01,8.20
2007,06,19,03,02,8.20
2007,06,19,03,03,8.20
2007,06,19,03,04,8.20
2007,06,19,03,05,8.20
2007,06,19,03,06,8.20
2007,06,19,03,07,8.20
2007,06,19,03,08,8.20
2007,06,19,03,09,8.20
2007,06,19,03,10,8.20
2007,06,19,03,11,8.20
2007,06,19,03,12,8.20
2007,06,19,03,13,8.20
2007,06,19,03,14,8.20
2007,06,19,03,15,8.20
2007,06,19,03,16,8.20
2007,06,19,03,17,8.20
2007,06,19,03,18,8.20
2007,06,19,03,19,8.20
2007,06,19,03,20,8.20
2007,06,19,03,21,8.20
2007,06,19,03,22,8.20
2007,06,19,03,23,8.20
2007,06,19,03,24,8.20
2007,06,19,03,25,8.20
2007,06,19,03,26,8.20
2007,06,19,03,27,8.20
2007,06,19,03,28,8.20
2007,06,19,03,29,8.20
2007,06,19,03,30,8.20
2007,06,19,03,31,8.20
2007,06,19,03,32,8.20
2007,06,19,03,33,8.20
2007,06,19,03,34,8.30
2007,06,19,03,35,8.30
2007,06,19,03,36,8.30
2007,06,19,03,37,8.40
2007,06,19,03,38,8.40
2007,06,19,03,39,8.40
2007,06,19,03,40,8.40
2007,06,19,03,41,8.50
2007,06,19,03,42,8.50
2007,06,19,03,43,8.50
2007,06,19,03,44,8.50
2007,06,19,03,45,8.50
2007,06,19,03,46,8.60
2007,06,19,03,47,8.60
2007,06,19,03,48,8.60
2007,06,19,03,49,8.60
2007,06,19,03,50,8.60
2007,06,19,03,51,8.60
2007,06,19,03,52,8.70
2007,06,19,03,53,8.70
2007,06,19,03,54,8.60
2007,06,19,03,55,8.60
2007,06,19,03,56,8.60
2007,06,19,03,57,8.60
2007,06,19,03,58,8.60
2007,06,19,03,59,8.50
2007,06,19,04,00,8.50
2007,06,19,04,01,8.50
2007,06,19,04,02,8.50
2007,06,19,04,03,8.40
2007,06,19,04,04,8.40
2007,06,19,04,05,8.40
2007,06,19,04,06,8.40
2007,06,19,04,07,8.40
2007,06,19,04,08,8.30
2007,06,19,04,09,8.30
2007,06,19,04,10,8.30
2007,06,19,04,11,8.30
2007,06,19,04,12,8.30
2007,06,19,04,13,8.30
2007,06,19,04,14,8.30
2007,06,19,04,15,8.30
2007,06,19,04,16,8.30
2007,06,19,04,17,8.40
2007,06,19,04,18,8.40
2007,06,19,04,19,8.40
2007,06,19,04,20,8.40
2007,06,19,04,21,8.40
2007,06,19,04,22,8.40
2007,06,19,04,23,8.40
2007,06,19,04,24,8.40
2007,06,19,04,25,8.40
2007,06,19,04,26,8.40
2007,06,19,04,27,8.40
2007,06,19,04,28,8.40
2007,06,19,04,29,8.40
2007,06,19,04,30,8.40
2007,06,19,04,31,8.40
2007,06,19,04,32,8.40
2007,06,19,04,33,8.40
2007,06,19,04,34,8.40
2007,06,19,04,35,8.40
2007,06,19,04,36,8.40
2007,06,19,04,37,8.40
2007,06,19,04,38,8.40
2007,06,19,04,39,8.40
2007,06,19,04,40,8.40
2007,06,19,04,41,8.40
2007,06,19,04,42,8.40
2007,06,19,04,43,8.40
2007,06,19,04,44,8.40
2007,06,19,04,45,8.40
2007,06,19,04,46,8.40
2007,06,19,04,47,8.40
2007,06,19,04,48,8.40
2007,06,19,04,49,8.40
2007,06,19,04,50,8.40
2007,06,19,04,51,8.40
2007,06,19,04,52,8.40
2007,06,19,04,53,8.40
2007,06,19,04,54,8.40
2007,06,19,04,55,8.40
2007,06,19,04,56,8.30
2007,06,19,04,57,8.30
2007,06,19,04,58,8.30
2007,06,19,04,59,8.30
2007,06,19,05,00,8.30
2007,06,19,05,01,8.30
2007,06,19,05,02,8.30
2007,06,19,05,03,8.30
2007,06,19,05,04,8.30
2007,06,19,05,05,8.30
2007,06,19,05,06,8.30
2007,06,19,05,07,8.30
2007,06,19,05,08,8.20
2007,06,19,05,09,8.20
2007,06,19,05,10,8.20
2007,06,19,05,11,8.20
2007,06,19,05,12,8.20
2007,06,19,05,13,8.20
2007,06,19,05,14,8.20
2007,06,19,05,15,8.20
2007,06,19,05,16,8.20
2007,06,19,05,17,8.20
2007,06,19,05,18,8.20
2007,06,19,05,19,8.20
2007,06,19,05,20,8.10
2007,06,19,05,21,8.10
2007,06,19,05,22,8.10
2007,06,19,05,23,8.10
2007,06,19,05,24,8.10
2007,06,19,05,25,8.10
2007,06,19,05,26,8.10
2007,06,19,05,27,8.10
2007,06,19,05,28,8.10
2007,06,19,05,29,8.00
2007,06,19,05,30,8.00
2007,06,19,05,31,8.00
2007,06,19,05,32,8.00
2007,06,19,05,33,8.00
2007,06,19,05,34,8.00
2007,06,19,05,35,8.00
2007,06,19,05,36,8.00
2007,06,19,05,37,8.00
2007,06,19,05,38,8.00
2007,06,19,05,39,8.00
2007,06,19,05,40,8.00
2007,06,19,05,41,8.00
2007,06,19,05,42,8.00
2007,06,19,05,43,8.00
2007,06,19,05,44,8.00
2007,06,19,05,45,8.00
2007,06,19,05,46,8.00
2007,06,19,05,47,8.00
2007,06,19,05,48,8.00
2007,06,19,05,49,8.00
2007,06,19,05,50,8.00
2007,06,19,05,51,8.00
2007,06,19,05,52,8.00
2007,06,19,05,53,8.10
2007,06,19,05,54,8.10
2007,06,19,05,55,8.20
2007,06,19,05,56,8.20
2007,06,19,05,57,8.20
2007,06,19,05,58,8.20
2007,06,19,05,59,8.20
2007,06,19,06,00,8.20
2007,06,19,06,01,8.30
2007,06,19,06,02,8.30
2007,06,19,06,03,8.30
2007,06,19,06,04,8.40
2007,06,19,06,05,8.40
2007,06,19,06,06,8.50
2007,06,19,06,07,8.50
2007,06,19,06,08,8.50
2007,06,19,06,09,8.50
2007,06,19,06,10,8.60
2007,06,19,06,11,8.60
2007,06,19,06,12,8.70
2007,06,19,06,13,8.70
2007,06,19,06,14,8.70
2007,06,19,06,15,8.70
2007,06,19,06,16,8.80
2007,06,19,06,17,8.90
2007,06,19,06,18,9.00
2007,06,19,06,19,9.20
2007,06,19,06,20,9.20
2007,06,19,06,21,9.30
2007,06,19,06,22,9.30
2007,06,19,06,23,9.30
2007,06,19,06,24,9.30
2007,06,19,06,25,9.30
2007,06,19,06,26,9.30
2007,06,19,06,27,9.40
2007,06,19,06,28,9.40
2007,06,19,06,29,9.40
2007,06,19,06,30,9.40
2007,06,19,06,31,9.40
2007,06,19,06,32,9.40
2007,06,19,06,33,9.40
2007,06,19,06,34,9.40
2007,06,19,06,35,9.40
2007,06,19,06,36,9.40
2007,06,19,06,37,9.40
2007,06,19,06,38,9.40
2007,06,19,06,39,9.50
2007,06,19,06,40,9.50
2007,06,19,06,41,9.60
2007,06,19,06,42,9.70
2007,06,19,06,43,9.70
2007,06,19,06,44,9.70
2007,06,19,06,45,9.70
2007,06,19,06,46,9.80
2007,06,19,06,47,9.80
2007,06,19,06,48,9.80
2007,06,19,06,49,9.80
2007,06,19,06,50,9.90
2007,06,19,06,51,10.10
2007,06,19,06,52,10.10
2007,06,19,06,53,10.10
2007,06,19,06,54,10.20
2007,06,19,06,55,10.30
2007,06,19,06,56,10.30
2007,06,19,06,57,10.40
2007,06,19,06,58,10.40
2007,06,19,06,59,10.50
2007,06,19,07,00,10.60
2007,06,19,07,01,10.60
2007,06,19,07,02,10.70
2007,06,19,07,03,10.70
2007,06,19,07,04,10.80
2007,06,19,07,05,10.90
2007,06,19,07,06,10.90
2007,06,19,07,07,11.00
2007,06,19,07,08,11.10
2007,06,19,07,09,11.10
2007,06,19,07,10,11.10
2007,06,19,07,11,11.20
2007,06,19,07,12,11.20
2007,06,19,07,13,11.20
2007,06,19,07,14,11.20
2007,06,19,07,15,11.30
2007,06,19,07,16,11.30
2007,06,19,07,17,11.40
2007,06,19,07,18,11.60
2007,06,19,07,19,11.70
2007,06,19,07,20,11.80
2007,06,19,07,21,12.00
2007,06,19,07,22,12.00
2007,06,19,07,23,12.30
2007,06,19,07,24,12.40
2007,06,19,07,25,12.40
2007,06,19,07,26,12.50
2007,06,19,07,27,12.60
2007,06,19,07,28,12.70
2007,06,19,07,29,12.80
2007,06,19,07,30,12.80
2007,06,19,07,31,12.90
2007,06,19,07,32,12.90
2007,06,19,07,33,12.90
2007,06,19,07,34,13.00
2007,06,19,07,35,13.00
2007,06,19,07,36,13.10
2007,06,19,07,37,13.10
2007,06,19,07,38,13.10
2007,06,19,07,39,13.20
2007,06,19,07,40,13.20
2007,06,19,07,41,13.30
2007,06,19,07,42,13.30
2007,06,19,07,43,13.50
2007,06,19,07,44,13.50
2007,06,19,07,45,13.60
2007,06,19,07,46,13.60
2007,06,19,07,47,13.70
2007,06,19,07,48,13.70
2007,06,19,07,49,13.70
2007,06,19,07,50,13.80
2007,06,19,07,51,13.80
2007,06,19,07,52,13.80
2007,06,19,07,53,13.80
2007,06,19,07,54,13.80
2007,06,19,07,55,13.80
2007,06,19,07,56,13.80
2007,06,19,07,57,13.90
2007,06,19,07,58,13.90
2007,06,19,07,59,14.00
2007,06,19,08,00,14.00
2007,06,19,08,01,14.10
2007,06,19,08,02,14.20
2007,06,19,08,03,14.20
2007,06,19,08,04,14.20
2007,06,19,08,05,14.30
2007,06,19,08,06,14.30
2007,06,19,08,07,14.40
2007,06,19,08,08,14.40
2007,06,19,08,09,14.50
2007,06,19,08,10,14.50
2007,06,19,08,11,14.60
2007,06,19,08,12,14.70
2007,06,19,08,13,14.70
2007,06,19,08,14,14.80
2007,06,19,08,15,14.80
2007,06,19,08,16,14.80
2007,06,19,08,17,14.80
2007,06,19,08,18,14.90
2007,06,19,08,19,14.90
2007,06,19,08,20,14.90
2007,06,19,08,27,14.80
2007,06,19,08,28,14.80
2007,06,19,08,29,14.80
2007,06,19,08,30,14.80
2007,06,19,08,31,14.80
2007,06,19,08,32,14.80
2007,06,19,08,33,14.80
2007,06,19,08,34,14.80
2007,06,19,08,35,14.80
2007,06,19,08,36,14.80
2007,06,19,08,37,14.80
2007,06,19,08,38,14.80
2007,06,19,08,39,14.80
2007,06,19,08,40,14.80
2007,06,19,08,41,14.80
2007,06,19,08,42,14.80
2007,06,19,08,43,14.90
2007,06,19,08,44,15.00
2007,06,19,08,45,15.00
2007,06,19,08,46,15.10
2007,06,19,08,47,15.10
2007,06,19,08,48,15.10
2007,06,19,08,49,15.10
2007,06,19,08,50,15.10
2007,06,19,08,51,15.10
2007,06,19,08,52,15.20
2007,06,19,08,53,15.20
2007,06,19,08,54,15.30
2007,06,19,08,55,15.30
2007,06,19,08,56,15.30
2007,06,19,08,57,15.30
2007,06,19,08,58,15.40
2007,06,19,08,59,15.40
2007,06,19,09,00,15.30
2007,06,19,09,01,15.20
2007,06,19,09,02,15.10
2007,06,19,09,03,15.00
2007,06,19,09,04,14.80
2007,06,19,09,05,14.70
2007,06,19,09,06,14.60
2007,06,19,09,07,14.60
2007,06,19,09,08,14.60
2007,06,19,09,09,14.60
2007,06,19,09,10,14.50
2007,06,19,09,11,14.60
2007,06,19,09,12,14.60
2007,06,19,09,13,14.60
2007,06,19,09,14,14.60
2007,06,19,09,15,14.70
2007,06,19,09,16,14.60
2007,06,19,09,17,14.60
2007,06,19,09,18,14.60
2007,06,19,09,19,14.60
2007,06,19,09,20,14.60
2007,06,19,09,21,14.60
2007,06,19,09,22,14.60
2007,06,19,09,23,14.50
2007,06,19,09,24,14.30
2007,06,19,09,25,14.30
2007,06,19,09,26,14.20
2007,06,19,09,27,14.20
2007,06,19,09,28,14.00
2007,06,19,09,29,13.80
2007,06,19,09,30,13.80
2007,06,19,09,31,13.70
2007,06,19,09,32,13.80
2007,06,19,09,33,13.90
2007,06,19,09,34,13.90
2007,06,19,09,35,13.90
2007,06,19,09,36,13.90
2007,06,19,09,37,13.90
2007,06,19,09,38,14.10
2007,06,19,09,39,14.20
2007,06,19,09,40,14.20
2007,06,19,09,41,14.20
2007,06,19,09,42,14.20
2007,06,19,09,43,14.20
2007,06,19,09,44,14.20
2007,06,19,09,45,14.20
2007,06,19,09,46,14.20
2007,06,19,09,47,14.20
2007,06,19,09,48,14.20
2007,06,19,09,49,14.30
2007,06,19,09,50,14.40
2007,06,19,09,51,14.50
2007,06,19,09,52,14.60
2007,06,19,09,53,14.50
2007,06,19,09,54,14.50
2007,06,19,09,55,14.50
2007,06,19,09,56,14.20
2007,06,19,09,57,14.20
2007,06,19,09,58,14.20
2007,06,19,09,59,14.10
2007,06,19,10,00,14.00
2007,06,19,10,01,14.00
2007,06,19,10,02,13.90
2007,06,19,10,03,13.90
2007,06,19,10,04,13.90
2007,06,19,10,05,13.80
2007,06,19,10,06,13.80
2007,06,19,10,07,13.80
2007,06,19,10,08,13.90
2007,06,19,10,09,13.90
2007,06,19,10,10,13.90
2007,06,19,10,11,14.00
2007,06,19,10,12,14.00
2007,06,19,10,13,14.00
2007,06,19,10,14,13.90
2007,06,19,10,15,13.70
2007,06,19,10,16,13.70
2007,06,19,10,17,13.70
2007,06,19,10,18,13.70
2007,06,19,10,19,13.70
2007,06,19,10,20,13.80
2007,06,19,10,21,13.90
2007,06,19,10,22,13.90
2007,06,19,10,23,13.80
2007,06,19,10,24,13.70
2007,06,19,10,25,13.70
2007,06,19,10,26,13.70
2007,06,19,10,27,13.70
2007,06,19,10,28,13.60
2007,06,19,10,29,13.50
2007,06,19,10,30,13.60
2007,06,19,10,31,13.60
2007,06,19,10,32,13.60
2007,06,19,10,33,13.70
2007,06,19,10,34,13.80
2007,06,19,10,35,14.00
2007,06,19,10,36,14.10
2007,06,19,10,37,14.20
2007,06,19,10,38,14.20
2007,06,19,10,39,14.40
2007,06,19,10,40,14.50
2007,06,19,10,41,14.50
2007,06,19,10,42,14.50
2007,06,19,10,43,14.40
2007,06,19,10,44,14.30
2007,06,19,10,45,14.40
2007,06,19,10,46,14.40
2007,06,19,10,47,14.40
2007,06,19,10,48,14.50
2007,06,19,10,49,14.60
2007,06,19,10,50,14.70
2007,06,19,10,51,14.80
2007,06,19,10,52,14.70
2007,06,19,10,53,14.60
2007,06,19,10,54,14.60
2007,06,19,10,55,14.70
2007,06,19,10,56,14.80
2007,06,19,10,57,14.80
2007,06,19,10,58,14.80
2007,06,19,10,59,14.90
2007,06,19,11,00,14.90
2007,06,19,11,01,15.00
2007,06,19,11,02,15.10
2007,06,19,11,03,15.20
2007,06,19,11,04,15.20
2007,06,19,11,05,15.20
2007,06,19,11,06,15.20
2007,06,19,11,07,15.30
2007,06,19,11,08,15.30
2007,06,19,11,09,15.30
2007,06,19,11,10,15.30
2007,06,19,11,11,15.30
2007,06,19,11,12,15.30
2007,06,19,11,13,15.50
2007,06,19,11,14,15.50
2007,06,19,11,15,15.60
2007,06,19,11,16,15.80
2007,06,19,11,17,15.80
2007,06,19,11,18,15.80
2007,06,19,11,19,15.80
2007,06,19,11,20,15.70
2007,06,19,11,21,15.60
2007,06,19,11,22,15.60
2007,06,19,11,23,15.50
2007,06,19,11,24,15.40
2007,06,19,11,25,15.30
2007,06,19,11,26,15.20
2007,06,19,11,27,15.20
2007,06,19,11,28,14.90
2007,06,19,11,29,14.80
2007,06,19,11,30,14.80
2007,06,19,11,31,14.80
2007,06,19,11,32,14.80
2007,06,19,11,33,15.00
2007,06,19,11,34,15.10
2007,06,19,11,35,15.10
2007,06,19,11,36,15.20
2007,06,19,11,37,15.20
2007,06,19,11,38,15.30
2007,06,19,11,39,15.50
2007,06,19,11,40,15.60
2007,06,19,11,41,15.60
2007,06,19,11,42,15.40
2007,06,19,11,43,15.30
2007,06,19,11,44,15.40
2007,06,19,11,45,15.40
2007,06,19,11,46,15.30
2007,06,19,11,47,15.30
2007,06,19,11,48,15.20
2007,06,19,11,49,15.10
2007,06,19,11,50,15.00
2007,06,19,11,51,15.00
2007,06,19,11,52,15.10
2007,06,19,11,53,15.30
2007,06,19,11,54,15.50
2007,06,19,11,55,15.50
2007,06,19,11,56,15.30
2007,06,19,11,57,15.30
2007,06,19,11,58,15.30
2007,06,19,11,59,15.30
2007,06,19,12,00,15.30
2007,06,19,12,01,15.30
2007,06,19,12,02,15.30
2007,06,19,12,03,15.50
2007,06,19,12,04,15.70
2007,06,19,12,05,15.90
2007,06,19,12,06,16.10
2007,06,19,12,07,16.20
2007,06,19,12,08,16.10
2007,06,19,12,09,16.20
2007,06,19,12,10,16.20
2007,06,19,12,11,16.00
2007,06,19,12,12,15.90
2007,06,19,12,13,15.90
2007,06,19,12,14,15.80
2007,06,19,12,15,15.80
2007,06,19,12,16,15.80
2007,06,19,12,17,15.80
2007,06,19,12,18,16.00
2007,06,19,12,19,16.10
2007,06,19,12,20,16.10
2007,06,19,12,21,16.10
2007,06,19,12,22,16.00
2007,06,19,12,23,15.80
2007,06,19,12,24,15.70
2007,06,19,12,25,15.50
2007,06,19,12,26,15.50
2007,06,19,12,27,15.40
2007,06,19,12,28,15.30
2007,06,19,12,29,15.40
2007,06,19,12,30,15.50
2007,06,19,12,31,15.50
2007,06,19,12,32,15.60
2007,06,19,12,33,15.60
2007,06,19,12,34,15.70
2007,06,19,12,35,15.70
2007,06,19,12,36,15.80
2007,06,19,12,37,15.70
2007,06,19,12,38,15.70
2007,06,19,12,39,15.80
2007,06,19,12,40,15.80
2007,06,19,12,41,15.90
2007,06,19,12,42,16.00
2007,06,19,12,43,16.10
2007,06,19,12,44,16.10
2007,06,19,12,45,16.20
2007,06,19,12,46,16.30
2007,06,19,12,47,16.30
2007,06,19,12,48,16.40
2007,06,19,12,49,16.30
2007,06,19,12,50,16.30
2007,06,19,12,51,16.40
2007,06,19,12,52,16.40
2007,06,19,12,53,16.30
2007,06,19,12,54,16.30
2007,06,19,12,55,16.20
2007,06,19,12,56,16.20
2007,06,19,12,57,16.30
2007,06,19,12,58,16.30
2007,06,19,12,59,16.20
2007,06,19,13,00,16.20
2007,06,19,13,01,16.20
2007,06,19,13,02,16.30
2007,06,19,13,03,16.50
2007,06,19,13,04,16.70
2007,06,19,13,05,16.70
2007,06,19,13,06,16.80
2007,06,19,13,07,16.90
2007,06,19,13,08,16.90
2007,06,19,13,09,16.90
2007,06,19,13,10,16.80
2007,06,19,13,11,16.90
2007,06,19,13,12,17.00
2007,06,19,13,13,16.90
2007,06,19,13,14,17.00
2007,06,19,13,15,17.00
2007,06,19,13,16,16.90
2007,06,19,13,17,16.80
2007,06,19,13,18,16.80
2007,06,19,13,19,16.90
2007,06,19,13,20,16.90
2007,06,19,13,21,16.90
2007,06,19,13,22,16.70
2007,06,19,13,23,16.70
2007,06,19,13,24,16.80
2007,06,19,13,25,16.80
2007,06,19,13,26,16.80
2007,06,19,13,27,16.80
2007,06,19,13,28,16.80
2007,06,19,13,29,16.90
2007,06,19,13,30,16.70
2007,06,19,13,31,16.50
2007,06,19,13,32,16.40
2007,06,19,13,33,16.40
2007,06,19,13,34,16.60
2007,06,19,13,35,16.80
2007,06,19,13,36,16.90
2007,06,19,13,37,16.90
2007,06,19,13,38,16.90
2007,06,19,13,39,16.90
2007,06,19,13,40,16.80
2007,06,19,13,41,16.60
2007,06,19,13,42,16.60
2007,06,19,13,43,16.50
2007,06,19,13,44,16.50
2007,06,19,13,45,16.70
2007,06,19,13,46,16.80
2007,06,19,13,47,16.90
2007,06,19,13,48,16.80
2007,06,19,13,49,16.90
2007,06,19,13,50,17.00
2007,06,19,13,51,17.00
2007,06,19,13,52,17.20
2007,06,19,13,53,17.10
2007,06,19,13,54,17.20
2007,06,19,13,55,17.30
2007,06,19,13,56,17.30
2007,06,19,13,57,17.30
2007,06,19,13,58,17.30
2007,06,19,13,59,17.30
2007,06,19,14,00,17.30
2007,06,19,14,01,17.30
2007,06,19,14,02,17.20
2007,06,19,14,03,17.10
2007,06,19,14,04,17.00
2007,06,19,14,05,16.90
2007,06,19,14,06,16.80
2007,06,19,14,07,16.70
2007,06,19,14,08,16.50
2007,06,19,14,09,16.40
2007,06,19,14,10,16.30
2007,06,19,14,11,16.30
2007,06,19,14,12,16.20
2007,06,19,14,13,16.20
2007,06,19,14,14,16.40
2007,06,19,14,15,16.40
2007,06,19,14,16,16.40
2007,06,19,14,17,16.30
2007,06,19,14,18,16.20
2007,06,19,14,19,16.10
2007,06,19,14,20,16.10
2007,06,19,14,21,16.10
2007,06,19,14,22,16.00
2007,06,19,14,23,15.90
2007,06,19,14,24,16.00
2007,06,19,14,25,16.10
2007,06,19,14,26,16.20
2007,06,19,14,27,16.30
2007,06,19,14,28,16.40
2007,06,19,14,29,16.40
2007,06,19,14,30,16.40
2007,06,19,14,31,16.50
2007,06,19,14,32,16.60
2007,06,19,14,33,16.70
2007,06,19,14,34,16.70
2007,06,19,14,35,16.90
2007,06,19,14,36,16.90
2007,06,19,14,37,16.80
2007,06,19,14,38,16.70
2007,06,19,14,39,16.80
2007,06,19,14,40,16.90
2007,06,19,14,41,16.90
2007,06,19,14,42,16.80
2007,06,19,14,43,16.70
2007,06,19,14,44,16.60
2007,06,19,14,45,16.50
2007,06,19,14,46,16.40
2007,06,19,14,47,16.40
2007,06,19,14,48,16.30
2007,06,19,14,49,16.20
2007,06,19,14,50,16.20
2007,06,19,14,51,16.20
2007,06,19,14,52,16.30
2007,06,19,14,53,16.30
2007,06,19,14,54,16.40
2007,06,19,14,55,16.50
2007,06,19,14,56,16.60
2007,06,19,14,57,16.60
2007,06,19,14,58,16.60
2007,06,19,14,59,16.50
2007,06,19,15,00,16.40
2007,06,19,15,01,16.50
2007,06,19,15,02,16.50
2007,06,19,15,03,16.40
2007,06,19,15,04,16.40
2007,06,19,15,05,16.00
2007,06,19,15,06,15.70
2007,06,19,15,07,15.50
2007,06,19,15,08,15.40
2007,06,19,15,09,15.40
2007,06,19,15,10,15.30
2007,06,19,15,11,15.40
2007,06,19,15,12,15.30
2007,06,19,15,13,15.30
2007,06,19,15,14,15.50
2007,06,19,15,15,15.70
2007,06,19,15,16,15.70
2007,06,19,15,17,15.60
2007,06,19,15,18,15.60
2007,06,19,15,19,15.50
2007,06,19,15,20,15.50
2007,06,19,15,21,15.70
2007,06,19,15,22,15.70
2007,06,19,15,23,15.70
2007,06,19,15,24,15.70
2007,06,19,15,25,15.70
2007,06,19,15,26,15.60
2007,06,19,15,27,15.60
2007,06,19,15,28,15.60
2007,06,19,15,29,15.60
2007,06,19,15,30,15.50
2007,06,19,15,31,15.50
2007,06,19,15,32,15.50
2007,06,19,15,33,15.70
2007,06,19,15,34,15.80
2007,06,19,15,35,16.00
2007,06,19,15,36,16.10
2007,06,19,15,37,16.20
2007,06,19,15,38,16.20
2007,06,19,15,39,16.20
2007,06,19,15,40,16.30
2007,06,19,15,41,16.30
2007,06,19,15,42,16.40
2007,06,19,15,43,16.50
2007,06,19,15,44,16.70
2007,06,19,15,45,16.80
2007,06,19,15,46,16.90
2007,06,19,15,47,17.00
2007,06,19,15,48,17.00
2007,06,19,15,49,17.00
2007,06,19,15,50,17.00
2007,06,19,15,51,17.10
2007,06,19,15,52,17.20
2007,06,19,15,53,17.40
2007,06,19,15,54,17.60
2007,06,19,15,55,17.60
2007,06,19,15,56,17.70
2007,06,19,15,57,17.90
2007,06,19,15,58,18.00
2007,06,19,15,59,18.10
2007,06,19,16,00,18.10
2007,06,19,16,01,18.10
2007,06,19,16,02,18.10
2007,06,19,16,03,18.00
2007,06,19,16,04,18.00
2007,06,19,16,05,18.10
2007,06,19,16,06,18.00
2007,06,19,16,07,17.90
2007,06,19,16,08,17.90
2007,06,19,16,09,17.80
2007,06,19,16,10,17.80
2007,06,19,16,11,17.90
2007,06,19,16,12,18.10
2007,06,19,16,13,18.10
2007,06,19,16,14,17.90
2007,06,19,16,15,17.90
2007,06,19,16,16,17.90
2007,06,19,16,17,17.80
2007,06,19,16,18,17.80
2007,06,19,16,19,17.80
2007,06,19,16,20,17.80
2007,06,19,16,21,17.80
2007,06,19,16,22,17.90
2007,06,19,16,23,17.90
2007,06,19,16,24,17.90
2007,06,19,16,25,18.00
2007,06,19,16,26,18.10
2007,06,19,16,27,18.20
2007,06,19,16,28,18.20
2007,06,19,16,29,18.20
2007,06,19,16,30,18.20
2007,06,19,16,31,18.20
2007,06,19,16,32,18.30
2007,06,19,16,33,18.30
2007,06,19,16,34,18.20
2007,06,19,16,35,18.10
2007,06,19,16,36,18.10
2007,06,19,16,37,18.20
2007,06,19,16,38,18.20
2007,06,19,16,39,18.30
2007,06,19,16,40,18.40
2007,06,19,16,41,18.40
2007,06,19,16,42,18.40
2007,06,19,16,43,18.50
2007,06,19,16,44,18.50
2007,06,19,16,45,18.40
2007,06,19,16,46,18.50
2007,06,19,16,47,18.60
2007,06,19,16,48,18.60
2007,06,19,16,49,18.60
2007,06,19,16,50,18.70
2007,06,19,16,51,18.90
2007,06,19,16,52,18.90
2007,06,19,16,53,19.10
2007,06,19,16,54,19.00
2007,06,19,16,55,18.90
2007,06,19,16,56,18.80
2007,06,19,16,57,18.70
2007,06,19,16,58,18.60
2007,06,19,16,59,18.50
2007,06,19,17,00,18.40
2007,06,19,17,01,18.40
2007,06,19,17,02,18.50
2007,06,19,17,03,18.40
2007,06,19,17,04,18.50
2007,06,19,17,05,18.40
2007,06,19,17,06,18.50
2007,06,19,17,07,18.50
2007,06,19,17,08,18.50
2007,06,19,17,09,18.60
2007,06,19,17,10,18.80
2007,06,19,17,11,18.90
2007,06,19,17,12,19.10
2007,06,19,17,13,19.10
2007,06,19,17,14,19.10
2007,06,19,17,15,19.10
2007,06,19,17,16,19.10
2007,06,19,17,17,19.00
2007,06,19,17,18,18.90
2007,06,19,17,19,18.90
2007,06,19,17,20,19.10
2007,06,19,17,21,19.10
2007,06,19,17,22,19.00
2007,06,19,17,23,19.10
2007,06,19,17,24,19.10
2007,06,19,17,25,19.10
2007,06,19,17,26,19.10
2007,06,19,17,27,19.30
2007,06,19,17,28,19.40
2007,06,19,17,29,19.50
2007,06,19,17,30,19.50
2007,06,19,17,31,19.50
2007,06,19,17,32,19.50
2007,06,19,17,33,19.60
2007,06,19,17,34,19.60
2007,06,19,17,35,19.70
2007,06,19,17,36,19.70
2007,06,19,17,37,19.70
2007,06,19,17,38,19.60
2007,06,19,17,39,19.60
2007,06,19,17,40,19.70
2007,06,19,17,41,19.80
2007,06,19,17,42,19.90